Total_Precipitation_Accumulation
2.04 2.15 2.14 2.12 2.10 2.03 2.09 2.17 2.24 2.17 1.96 1.75 1.69 1.62 1.64 1.65 1.77 1.43 1.45 1.63 1.44 1.33 1.24 1.19 1.19 1.13 1.08 1.06 1.03 1.03 1.07 1.16 1.27 1.37 1.47 1.57 1.72 1.92
1.78 1.92 2.00 2.02 2.12 2.15 2.23 2.27 2.27 2.27 2.17 1.87 1.76 1.69 1.68 1.61 1.85 1.58 1.56 1.63 1.42 1.25 1.13 1.04 1.01 0.97 0.93 0.93 0.95 0.95 0.94 0.96 1.00 1.08 1.17 1.26 1.37 1.52
1.61 1.70 1.80 1.83 1.93 1.98 2.04 2.07 2.16 2.20 2.18 1.97 1.83 1.79 1.76 1.74 1.77 1.61 1.51 1.44 1.34 1.23 1.07 0.98 0.94 0.90 0.89 0.89 0.90 0.90 0.90 0.91 0.94 0.97 1.02 1.09 1.17 1.24
1.47 1.51 1.59 1.60 1.65 1.65 1.75 1.81 1.84 1.90 1.95 2.00 2.02 1.95 1.87 1.82 1.74 1.58 1.35 1.19 1.15 1.14 1.03 0.97 0.95 0.95 0.96 0.97 0.96 0.93 0.88 0.81 0.82 0.88 0.94 0.95 0.97 1.05
1.22 1.27 1.33 1.33 1.31 1.30 1.37 1.39 1.48 1.58 1.77 1.86 1.88 1.94 1.91 1.90 1.92 1.65 1.44 1.39 1.08 1.02 0.96 0.96 0.95 0.93 0.92 0.90 0.87 0.85 0.82 0.74 0.66 0.67 0.75 0.83 0.87 0.87
1.01 1.06 1.08 1.03 1.01 1.03 1.06 1.12 1.25 1.49 1.66 1.72 1.66 1.69 1.77 1.74 1.87 1.76 1.62 1.48 1.27 0.95 0.89 0.82 0.83 0.84 0.83 0.78 0.75 0.73 0.73 0.74 0.72 0.67 0.66 0.65 0.68 0.70
0.90 0.92 0.89 0.86 0.88 0.87 0.83 0.93 1.12 1.36 1.48 1.56 1.58 1.54 1.55 1.59 1.63 1.55 1.53 1.52 1.40 1.13 1.03 0.84 0.77 0.80 0.84 0.83 0.79 0.71 0.66 0.64 0.64 0.63 0.62 0.62 0.62 0.65
0.88 0.81 0.76 0.74 0.72 0.73 0.74 0.83 0.96 1.08 1.20 1.32 1.38 1.40 1.41 1.43 1.51 1.52 1.52 1.54 1.51 1.28 1.21 1.09 0.90 0.96 0.93 0.85 0.80 0.71 0.69 0.68 0.66 0.66 0.66 0.66 0.65 0.65
0.91 0.91 0.77 0.63 0.70 0.74 0.76 0.80 0.86 0.90 0.99 1.15 1.25 1.26 1.31 1.41 1.56 1.56 1.57 1.56 1.50 1.33 1.34 1.32 1.15 1.10 0.89 0.76 0.78 0.71 0.66 0.65 0.65 0.65 0.66 0.67 0.67 0.66
0.84 0.86 0.87 0.82 0.78 0.82 0.80 0.82 0.86 0.91 0.97 1.04 1.18 1.21 1.17 1.26 1.45 1.47 1.49 1.46 1.39 1.32 1.36 1.41 1.18 1.08 0.85 0.88 0.82 0.67 0.61 0.63 0.63 0.58 0.59 0.61 0.66 0.69
0.68 0.69 0.70 0.70 0.69 0.75 0.81 0.90 0.92 0.92 0.83 0.87 0.92 1.00 1.11 1.17 1.23 1.29 1.41 1.54 1.49 1.37 1.33 1.41 1.29 1.13 0.97 0.99 0.89 0.75 0.68 0.71 0.67 0.56 0.52 0.52 0.55 0.63
0.65 0.64 0.63 0.60 0.59 0.57 0.65 0.85 0.98 0.96 0.88 0.88 0.99 1.14 1.21 1.22 1.18 1.26 1.39 1.49 1.47 1.49 1.32 1.34 1.34 1.24 1.18 1.00 0.92 0.90 0.90 0.94 0.83 0.67 0.55 0.52 0.55 0.59
0.64 0.65 0.64 0.56 0.49 0.49 0.57 0.72 0.80 0.78 0.86 1.07 1.28 1.34 1.32 1.26 1.18 1.16 1.31 1.44 1.49 1.50 1.29 1.28 1.34 1.35 1.40 1.21 0.95 0.95 1.03 1.13 1.10 0.92 0.71 0.63 0.60 0.57
0.59 0.60 0.57 0.52 0.44 0.46 0.50 0.58 0.62 0.72 0.96 1.21 1.36 1.33 1.16 1.03 1.01 0.98 1.04 1.20 1.33 1.32 1.22 1.23 1.35 1.40 1.38 1.26 1.09 1.01 1.10 1.23 1.28 1.19 0.99 0.85 0.79 0.71
0.52 0.52 0.52 0.54 0.55 0.61 0.63 0.61 0.67 0.87 1.09 1.22 1.23 1.14 1.03 0.97 0.95 0.96 0.94 1.07 1.14 1.07 0.98 1.03 1.20 1.28 1.36 1.32 1.26 1.27 1.33 1.44 1.42 1.39 1.28 1.07 0.92 0.86
0.51 0.56 0.65 0.72 0.74 0.76 0.79 0.85 0.89 0.95 0.98 1.07 1.06 0.99 0.89 0.89 0.92 0.90 0.93 0.99 1.09 1.09 0.99 0.95 1.05 1.21 1.31 1.28 1.34 1.41 1.45 1.65 1.62 1.48 1.42 1.36 1.19 0.99
0.53 0.66 0.83 0.90 0.92 0.89 0.85 0.86 0.89 0.88 0.90 0.89 0.87 0.85 0.85 0.85 0.84 0.82 0.87 0.89 1.00 1.05 1.05 1.01 1.03 1.08 1.07 1.10 1.23 1.27 1.34 1.50 1.59 1.52 1.48 1.56 1.55 1.31
0.54 0.76 0.90 0.93 0.93 0.83 0.77 0.73 0.74 0.75 0.72 0.73 0.75 0.78 0.81 0.81 0.81 0.79 0.80 0.85 0.93 0.94 0.96 0.99 1.01 1.10 1.09 0.98 1.09 1.21 1.21 1.38 1.48 1.42 1.35 1.50 1.64 1.45
0.54 0.67 0.78 0.85 0.85 0.75 0.68 0.67 0.70 0.69 0.65 0.66 0.70 0.73 0.75 0.75 0.78 0.79 0.79 0.83 0.85 0.86 0.88 0.89 0.92 1.02 1.10 1.12 1.10 1.17 1.19 1.23 1.26 1.25 1.25 1.30 1.48 1.45
0.56 0.62 0.67 0.73 0.75 0.71 0.67 0.67 0.67 0.67 0.65 0.65 0.66 0.69 0.72 0.73 0.71 0.71 0.73 0.74 0.79 0.83 0.86 0.87 0.89 0.94 1.00 1.03 1.15 1.19 1.13 1.01 0.97 1.04 1.08 1.16 1.28 1.28
0.56 0.58 0.58 0.61 0.62 0.63 0.65 0.65 0.64 0.62 0.62 0.62 0.63 0.67 0.69 0.69 0.69 0.65 0.63 0.63 0.71 0.79 0.84 0.87 0.89 0.85 0.84 0.88 1.01 1.10 1.09 1.11 1.01 0.91 0.90 0.97 0.99 0.91
0.51 0.54 0.56 0.57 0.56 0.53 0.52 0.54 0.57 0.56 0.53 0.55 0.60 0.65 0.69 0.70 0.66 0.60 0.61 0.66 0.71 0.76 0.78 0.76 0.75 0.76 0.80 0.91 0.99 1.06 1.03 0.92 0.89 0.92 0.87 0.73 0.63 0.66
0.55 0.54 0.51 0.52 0.48 0.46 0.48 0.49 0.51 0.51 0.51 0.53 0.57 0.62 0.62 0.60 0.57 0.53 0.51 0.53 0.57 0.61 0.67 0.71 0.72 0.74 0.74 0.77 0.82 0.85 0.80 0.70 0.60 0.62 0.74 0.75 0.63 0.60